星链-31748 (STARLINK-31748 )

导读 | 豆包AI

STARLINK-31748是美国SpaceX星链星座中的一颗低轨互联网卫星,于北京时间2024年4月28日8时成功发射入轨。作为星链大规模组网计划的组成部分,它运行在近地轨道,将为全球偏远地区提供低延迟高速宽带服务。星链计划最终将部署数万颗卫星,该卫星的成功发射进一步推进了星座组网进程,推动全球卫星互联网覆盖网络的构建。

基本信息
目录编号:
59612
目录名称:
STARLINK-31748
国际标识:
2024-080M
轨道中心:
EARTH
卫星名称:
星链-31748
卫星全名:
星链-31748 (STARLINK-31748 )
卫星状态:
在轨 (已飞行686 天)
发射日期:
2024-04-28 UTC
国别 :
美国 (US)
星等 :
--
轨道信息
数据来源 国际轨道数据
星历时间: 2026-03-15T10:33:40+0800
17小时前
查看轨道信息
半长轴: 6861.151km
偏心率: 0.0000922
轨道倾角: 43.002°
近地点辐角 276.583°
升交点赤经 3.640°
平近点角 83.491°
近地点: 482.381km
远地点: 483.647km
周期: 94.266分钟
每日圈数: 15.275918
详细信息
固有亮度:
5
最大亮度:
1.5
卫星平台:
Starlink v2.0 mini
覆盖范围:
全球
运营商:
太空探索技术公司
运营商所在国:
美国
制造商(研发单位):
太空探索技术公司
制造商所在国:
美国
使用方式:
暂无
卫星简介
星链(Starlink)计划是由太空探索技术公司(SpaceX)提出的一个巨型低轨卫星互联网星座项目,计划在2019年至2024年间在太空搭建由约1.2万颗卫星组成的“星链”网络,其中1584颗将部署在地球上空550千米处的近地轨道,并从2020年开始工作。该卫星仍在工作。
2D轨道图
3D轨道图
轨道高度分析图
轨道倾角分析图
轨道综合分析图
查看轨道综合分析图